User: anonymous   Login
Location: Unspecified
(0.0000°N, 0.0000°E)
Time: 23:02:37
(UTC+00:00)
Language:

ICEYE-X31 - Orbit

View from above orbital plane
View from above orbital plane
View from above satellite
View from above satellite

Ground track
Ground track

The orbit is defined by the following mean orbital elements,

1 58288U          26145.63046036 +.00000000 +00000-0 +52366-3 0 00005
2 58288  97.3789 221.3914 0003213  73.7994 286.3602 15.33433259    01
Epoch (UTC): 25 May 2026 15:07:51
Eccentricity: 0.0003213
inclination: 97.3789°
perigee height: 463 km
apogee height: 468 km
right ascension of ascending node: 221.3914°
argument of perigee: 73.7994°
revolutions per day: 15.33433259
mean anomaly at epoch: 286.3602°

The dashed part of the orbit path shows where the satellite is in the earth's shadow,  

DLR